Location: Newark
(48.8833°N, 0.9236°W)
Time: 03:19:36
(UTC+00:00)

Tiros 1 despin weight - Pass Details

Date: 26 November 2019
Orbit: 594 x 642 km, 48.2° (Epoch: 14 December)

Event Time Altitude Azimuth Distance (km) Brightness Sun altitude
Rises 09:25:06 0° 191° (SSW) 2,826 ? 13.0°
Reaches altitude 10° 09:28:35 10° 163° (SSE) 1,923 ? 13.3°
Maximum altitude 09:30:29 13° 137° (SE) 1,757 ? 13.5°
Drops below altitude 10° 09:32:22 10° 111° (ESE) 1,924 ? 13.7°
Sets 09:35:51 0° 83° (E) 2,830 ? 14.0°
